Location: Blacksburg
(37.2290°N, 80.4140°W)
Time: 13:30:39
(UTC-04:00)

ISS - Pass Details

Date: 04 August 2021
Orbit: 419 x 423 km, 51.6° (Epoch: 23 September)

Event Time Altitude Azimuth Distance (km) Brightness Sun altitude
Rises 21:39:40 0° 296° (WNW) 2,371 1.9 -13.8°
Reaches altitude 10° 21:42:09 10° 278° (W) 1,502 0.1 -14.2°
Maximum altitude 21:44:38 19° 230° (SW) 1,053 -1.6 -14.6°
Enters shadow 21:46:43 12° 187° (S) 1,377 -1.4 -14.9°
